Tracking 29892 objects as of 21-Nov-2024
HD Live streaming from Space Station
objects crossing your sky now

ATLAS 5 CENTAUR DEB

Track ATLAS 5 CENTAUR DEB now!


NORAD ID: 43952
Int'l Code: 2014-055F
Perigee: 6,743.6 km
Apogee: 34,187.8 km
Inclination: 20.6 °
Period: 729.2 minutes
Semi major axis: 26836 km
RCS: Unknown
Launch date: September 17, 2014
Source: United States (US)
Launch site: AIR FORCE EASTERN TEST RANGE (AFETR)

Note: This is SATELLITE DEBRIS
Your satellite tracking list
Your tracking list is empty




NASA's NSSDC Master Catalog

Two Line Element Set (TLE):
1 43952U 14055F   24314.05839821  .00000084  00000-0  00000+0 0  9999
2 43952  20.6241 144.9970 5113196 167.2201 213.4650  1.97473823 44462
Source of the keplerian elements: AFSPC